Wind_Speed
5 5 5 5 6 6 6 5 6 6 6 5 5 5 6 6 7 7 7 7 8 7 7 7 7 7 6 6 7 8 8 6 7 8 8 7 6 6 5 4 4 3 3
5 5 5 5 6 6 6 5 5 5 6 6 5 5 5 5 6 6 7 6 7 7 7 6 6 6 6 5 5 7 7 7 8 8 8 8 7 6 5 5 4 3 3
5 5 5 6 6 6 6 6 5 5 6 5 5 5 5 5 5 5 6 6 6 6 7 6 6 6 5 4 5 5 5 6 8 8 8 7 7 6 5 5 4 4 3
5 6 5 6 6 6 6 6 5 5 5 5 5 5 5 5 5 5 5 5 6 6 7 6 5 5 4 4 4 4 4 5 7 7 7 7 6 6 5 5 4 4 4
5 6 6 6 7 7 6 6 5 5 4 4 4 4 4 3 3 3 4 5 5 5 5 5 5 5 4 3 3 4 4 4 5 6 7 6 6 5 5 5 5 4 3
6 6 7 7 7 7 6 6 5 4 4 4 4 4 3 3 3 3 3 4 5 4 5 4 5 5 3 3 4 4 4 4 4 5 6 6 5 5 5 5 6 5 5
7 7 7 7 6 6 6 5 5 4 4 4 4 3 3 2 2 2 2 3 4 4 4 4 4 5 4 3 3 3 3 3 4 5 6 6 5 5 5 5 5 5 5
8 7 7 7 6 6 5 4 4 4 4 3 3 2 2 2 2 2 2 2 2 3 3 3 3 3 3 3 4 4 3 4 4 5 6 5 5 5 5 5 5 5 5
9 8 8 7 6 6 5 4 4 4 3 3 3 3 3 2 2 2 2 3 2 2 3 3 4 4 4 3 4 4 3 3 4 4 4 5 5 5 5 5 4 4 5
10 9 8 8 7 6 6 5 4 4 3 3 3 3 3 2 2 2 2 2 1 2 2 3 3 4 4 4 4 4 4 4 3 3 4 5 5 5 5 5 6 5 5
10 9 9 9 8 6 6 5 5 4 3 2 3 3 2 2 2 2 1 0 0 1 1 2 4 4 4 4 5 5 3 2 2 2 3 4 4 5 6 6 5 5 5
9 9 9 9 8 7 6 5 5 5 4 3 3 3 3 3 2 2 2 1 1 0 0 2 4 4 4 4 4 5 3 2 3 3 3 3 4 5 6 5 5 5 6
10 9 9 9 8 8 7 6 6 5 5 4 4 4 4 4 3 3 3 2 1 0 0 2 3 3 3 3 4 4 3 3 4 4 3 4 4 5 5 6 6 6 6
10 10 9 8 8 7 7 7 6 6 5 5 5 5 5 4 4 4 4 3 2 2 1 1 3 3 2 3 3 3 3 4 4 4 4 5 5 5 6 6 6 6 7
10 9 9 8 8 7 7 7 7 6 6 5 5 5 5 4 5 5 5 4 4 4 3 2 1 2 2 1 2 3 3 4 5 5 4 4 5 5 6 6 6 6 6
9 9 9 8 8 7 7 7 7 6 6 6 6 6 5 5 5 5 5 5 5 4 3 3 2 1 1 1 0 2 3 4 4 4 5 5 5 5 5 6 7 7 7
10 9 9 9 8 8 7 7 7 7 6 6 6 6 5 6 6 6 6 6 5 4 3 3 2 2 2 1 1 1 1 2 2 4 5 5 5 5 5 6 7 8 7
9 9 9 9 9 8 8 7 7 7 6 6 6 5 6 6 6 6 6 6 5 5 3 2 2 2 2 2 2 1 1 2 3 4 5 6 6 6 6 6 7 8 9
10 9 9 9 9 8 8 8 7 7 7 7 6 5 6 5 5 5 5 5 5 4 4 2 2 3 2 2 2 2 1 2 3 4 5 6 6 6 6 7 7 8 8
9 9 9 9 9 8 7 7 8 7 7 7 6 6 6 6 5 5 5 4 4 5 5 3 3 3 3 3 4 3 3 3 4 4 5 6 6 7 7 7 7 7 8
8 8 8 9 8 8 7 7 7 7 7 7 7 6 6 6 5 5 4 4 4 5 5 5 4 4 3 4 4 4 4 4 5 5 6 6 7 7 7 7 8 8 8
8 8 7 7 8 7 7 6 6 6 5 6 7 6 6 6 6 5 5 5 5 5 5 5 5 4 4 4 3 3 4 4 5 6 6 6 7 7 8 8 8 8 8
8 7 7 6 7 7 7 6 5 5 5 6 6 6 6 6 6 6 6 6 5 5 5 5 5 4 4 4 4 4 4 5 6 6 6 6 6 7 8 9 9 9 9
8 7 7 6 6 6 6 6 5 6 6 6 5 6 6 5 5 5 6 6 6 5 5 5 5 5 5 5 5 5 5 6 7 7 7 7 8 8 9 10 9 10 10
8 7 7 6 5 6 6 6 6 6 5 5 4 4 5 5 5 5 5 6 6 5 5 5 5 5 6 5 5 5 6 6 7 7 8 8 9 9 9 9 9 9 10
7 7 6 6 5 5 5 6 6 6 5 5 4 4 4 4 5 5 5 5 5 5 5 5 5 5 5 5 5 5 6 6 7 8 8 9 9 9 10 9 9 10 11
Wind_Direction
80 74 83 94 99 102 101 106 116 123 121 121 118 120 117 123 135 139 139 149 150 149 150 151 151 155 169 174 179 182 186 187 189 192 193 194 194 193 201 205 207 213 214
84 79 88 96 100 101 101 106 110 122 124 123 121 119 122 131 136 136 138 142 144 148 146 147 152 160 172 174 176 186 190 192 190 189 193 196 199 200 205 206 209 207 213
84 87 94 102 102 98 99 103 107 117 122 122 119 122 124 129 129 133 139 145 144 145 148 155 160 161 168 171 179 189 190 195 192 194 196 198 200 201 207 208 209 217 227
89 88 97 103 97 94 94 97 103 111 113 119 118 123 128 131 128 132 140 146 144 143 155 160 158 156 159 167 172 185 182 178 188 199 201 201 204 209 210 214 217 222 227
88 91 95 92 94 93 92 95 99 104 103 103 106 119 122 128 135 147 156 155 154 156 161 169 163 162 163 172 175 181 181 180 192 200 203 202 206 216 220 222 225 226 229
89 94 93 86 84 89 90 90 91 94 96 99 98 108 115 122 135 149 162 168 169 177 182 186 176 171 168 176 181 184 189 195 199 201 202 200 207 217 227 233 236 235 241
91 91 93 86 83 89 86 81 85 89 90 91 90 98 107 116 127 163 157 178 185 187 189 190 181 189 194 196 200 192 192 201 200 195 196 200 215 229 227 231 235 237 244
81 89 93 87 82 85 89 85 78 79 80 83 84 87 96 100 118 143 155 156 181 196 200 207 200 195 201 196 179 168 165 179 193 200 201 209 223 225 221 227 231 239 248
78 84 88 84 82 85 86 83 77 71 72 76 77 81 88 93 112 127 132 119 158 184 193 208 208 202 201 190 179 180 179 186 193 196 209 217 226 225 226 233 244 253 260
78 78 79 78 79 84 84 85 82 76 71 73 75 83 88 92 110 124 142 112 120 164 186 201 211 207 205 199 193 192 200 200 193 209 223 229 231 236 241 243 250 255 260
75 78 78 73 76 81 83 84 80 78 71 74 81 85 86 88 102 114 116 107 141 155 176 198 208 201 210 204 206 208 202 207 224 228 236 245 241 246 249 253 252 254 255
73 73 73 70 73 76 75 79 76 73 71 76 83 82 85 85 89 98 86 79 45 314 222 190 197 206 208 209 201 195 202 214 232 235 240 255 254 255 254 254 254 260 264
73 70 66 65 69 69 70 73 71 68 67 68 70 72 76 83 82 80 80 75 49 11 243 194 191 205 209 214 205 203 218 230 241 251 245 249 254 255 254 256 254 265 270
67 67 64 63 64 65 65 67 66 64 68 70 73 74 74 80 89 81 79 65 58 52 61 181 206 214 215 206 214 232 246 249 247 256 257 253 258 257 262 267 265 270 272
62 58 56 56 56 60 60 61 64 60 65 74 80 76 78 82 87 79 72 69 58 57 71 91 148 187 175 194 229 243 248 256 252 253 262 276 266 259 266 266 271 278 280
58 53 51 52 54 56 61 62 61 63 71 78 80 81 84 80 76 72 70 65 61 60 70 88 88 80 92 70 319 252 248 250 254 261 268 275 271 269 275 276 277 276 282
53 52 49 53 53 53 61 64 64 69 76 74 74 76 79 80 73 69 68 66 65 64 74 79 78 62 52 42 4 334 276 288 278 282 283 286 278 274 279 285 283 281 287
50 50 53 55 53 53 59 65 65 66 68 71 71 74 74 72 72 68 66 64 62 58 57 61 61 52 50 36 31 9 337 317 291 288 294 294 283 281 284 287 288 282 286
50 51 54 56 53 54 58 61 62 64 64 65 66 68 69 68 66 57 58 54 52 50 39 35 45 30 33 27 16 359 328 330 316 307 302 303 301 295 290 287 287 281 282
49 50 53 53 50 53 56 58 62 63 63 64 65 67 67 67 61 53 53 55 49 40 30 21 7 5 14 7 358 355 340 331 325 315 307 301 305 301 292 296 292 288 286
46 46 49 48 49 55 58 59 62 65 64 63 63 68 68 66 60 49 46 50 40 29 27 25 13 6 1 1 359 344 331 322 321 317 315 307 305 303 296 296 300 298 294
41 42 47 47 45 51 53 55 62 66 63 59 61 67 70 64 60 58 54 52 40 28 21 17 14 12 1 357 350 337 332 327 325 324 324 316 311 303 302 304 305 302 297
38 39 43 47 44 45 47 52 62 68 65 61 62 65 66 60 54 53 54 52 45 35 26 12 7 4 358 350 348 343 337 330 328 330 329 321 314 306 306 311 310 309 300
29 31 34 40 41 40 45 51 57 60 61 55 57 58 57 52 47 45 48 43 35 31 17 7 2 359 353 352 347 342 338 329 324 329 328 322 318 313 310 310 308 308 306
23 24 24 28 30 31 40 47 49 52 53 49 47 45 45 45 40 35 37 29 23 15 7 7 6 3 1 354 344 336 334 331 330 333 332 329 326 322 319 314 309 310 310
16 19 19 22 28 33 36 41 46 49 52 50 46 36 37 34 28 23 16 8 6 1 358 356 357 355 1 0 351 342 334 334 337 335 332 332 328 323 321 320 319 313 309
Height
5883 5882 5883 5883 5884 5884 5884 5884 5884 5884 5884 5884 5884 5884 5884 5884 5884 5884 5884 5885 5885 5885 5886 5887 5887 5888 5889 5889 5890 5891 5891 5891 5892 5893 5893 5894 5895 5896 5896 5896 5896 5896 5895
5883 5883 5884 5884 5884 5884 5884 5885 5885 5885 5885 5885 5885 5885 5885 5885 5885 5885 5885 5885 5886 5886 5886 5887 5888 5889 5889 5890 5890 5890 5890 5890 5891 5893 5893 5894 5895 5895 5896 5896 5895 5895 5895
5884 5884 5884 5884 5885 5885 5885 5886 5885 5885 5885 5885 5885 5885 5885 5885 5885 5885 5886 5886 5886 5886 5887 5888 5889 5889 5889 5890 5890 5890 5890 5889 5890 5892 5893 5894 5894 5895 5895 5895 5895 5895 5894
5884 5884 5885 5885 5885 5886 5886 5886 5886 5886 5886 5886 5886 5886 5886 5886 5886 5886 5886 5887 5887 5887 5888 5888 5889 5889 5890 5890 5890 5891 5890 5889 5890 5892 5893 5894 5894 5895 5895 5895 5895 5895 5894
5885 5886 5886 5886 5886 5886 5887 5887 5887 5887 5887 5887 5887 5887 5887 5886 5886 5886 5886 5887 5887 5888 5888 5888 5889 5890 5890 5890 5891 5891 5891 5891 5892 5892 5893 5893 5894 5894 5894 5894 5895 5894 5894
5886 5886 5886 5886 5887 5887 5888 5888 5888 5888 5888 5888 5888 5888 5887 5887 5886 5886 5886 5887 5887 5888 5888 5888 5889 5889 5890 5891 5891 5891 5892 5892 5892 5892 5893 5893 5893 5894 5894 5894 5894 5893 5893
5887 5887 5887 5888 5888 5888 5889 5889 5889 5888 5888 5888 5888 5888 5888 5888 5887 5887 5886 5887 5887 5887 5887 5888 5889 5889 5890 5890 5890 5891 5892 5892 5892 5892 5892 5893 5893 5893 5893 5893 5893 5892 5892
5888 5889 5889 5889 5889 5889 5889 5889 5889 5889 5889 5889 5889 5888 5888 5888 5888 5887 5887 5887 5887 5886 5887 5887 5888 5889 5889 5889 5889 5890 5891 5891 5892 5892 5892 5892 5893 5892 5892 5892 5891 5891 5891
5890 5890 5890 5890 5890 5890 5890 5890 5890 5890 5889 5889 5889 5889 5888 5888 5888 5888 5887 5887 5886 5886 5886 5887 5887 5888 5889 5889 5889 5889 5890 5891 5891 5891 5891 5892 5892 5891 5891 5891 5891 5890 5890
5891 5891 5891 5891 5891 5891 5891 5891 5891 5890 5890 5889 5889 5889 5888 5888 5888 5888 5888 5887 5887 5886 5886 5886 5887 5887 5888 5888 5888 5889 5889 5890 5890 5890 5891 5891 5891 5890 5890 5890 5890 5889 5889
5892 5892 5892 5892 5892 5892 5891 5891 5891 5891 5890 5890 5889 5889 5889 5888 5888 5888 5888 5887 5887 5886 5886 5886 5886 5886 5886 5887 5888 5888 5889 5889 5889 5890 5890 5889 5889 5889 5889 5888 5888 5888 5888
5893 5893 5893 5893 5892 5892 5892 5892 5891 5891 5891 5890 5890 5889 5889 5889 5888 5888 5888 5887 5886 5886 5885 5885 5885 5886 5886 5886 5887 5887 5888 5888 5888 5888 5888 5888 5888 5888 5888 5887 5887 5887 5886
5895 5894 5894 5893 5893 5893 5892 5892 5892 5891 5891 5891 5890 5890 5889 5889 5888 5888 5887 5887 5886 5885 5884 5884 5884 5885 5886 5886 5886 5886 5887 5887 5888 5887 5887 5888 5888 5887 5887 5886 5886 5885 5885
5897 5896 5895 5894 5893 5893 5893 5893 5892 5892 5891 5891 5890 5890 5890 5889 5889 5888 5887 5887 5885 5884 5882 5881 5882 5884 5885 5885 5886 5886 5886 5887 5887 5886 5886 5887 5886 5886 5885 5885 5884 5884 5884
5898 5897 5897 5895 5895 5894 5894 5893 5892 5892 5892 5891 5891 5890 5890 5890 5889 5889 5888 5887 5886 5885 5883 5882 5883 5884 5885 5885 5885 5886 5886 5886 5886 5886 5886 5885 5885 5885 5884 5884 5883 5883 5882
5899 5898 5897 5897 5896 5895 5895 5894 5893 5893 5892 5892 5892 5891 5890 5890 5890 5889 5889 5888 5887 5886 5885 5885 5885 5885 5885 5885 5885 5885 5885 5885 5885 5885 5885 5884 5884 5883 5883 5882 5882 5881 5881
5900 5899 5898 5897 5896 5895 5895 5894 5894 5893 5893 5893 5892 5891 5891 5891 5890 5890 5890 5889 5888 5888 5887 5886 5886 5886 5886 5886 5885 5885 5885 5885 5884 5884 5884 5883 5883 5882 5882 5881 5880 5880 5879
5901 5900 5899 5898 5897 5896 5895 5894 5894 5894 5894 5893 5893 5892 5891 5891 5891 5891 5890 5890 5889 5888 5887 5887 5887 5886 5886 5885 5885 5885 5884 5884 5884 5883 5883 5882 5881 5881 5881 5880 5879 5879 5878
5902 5901 5900 5899 5898 5897 5896 5895 5895 5895 5895 5894 5893 5893 5892 5892 5892 5891 5890 5890 5889 5889 5888 5887 5887 5886 5886 5885 5885 5884 5884 5884 5883 5882 5882 5881 5880 5880 5879 5878 5878 5877 5876
5903 5902 5901 5900 5899 5898 5897 5896 5896 5896 5895 5895 5894 5893 5893 5892 5892 5891 5891 5890 5890 5889 5888 5887 5887 5886 5886 5885 5885 5884 5883 5883 5882 5881 5881 5880 5879 5878 5877 5877 5876 5875 5874
5904 5903 5902 5901 5900 5899 5898 5897 5897 5896 5896 5895 5895 5894 5894 5893 5892 5891 5891 5890 5890 5889 5888 5887 5887 5886 5886 5885 5884 5884 5883 5882 5881 5880 5880 5879 5878 5877 5876 5875 5875 5873 5872
5905 5904 5903 5902 5901 5899 5898 5898 5897 5897 5897 5896 5895 5895 5894 5893 5893 5892 5891 5890 5890 5889 5888 5887 5886 5886 5885 5885 5884 5883 5882 5882 5880 5879 5879 5878 5877 5875 5874 5873 5872 5871 5870
5905 5905 5904 5903 5902 5900 5899 5898 5898 5898 5897 5897 5896 5895 5895 5894 5893 5892 5891 5891 5890 5889 5888 5887 5886 5886 5885 5884 5883 5883 5882 5881 5880 5879 5877 5877 5875 5874 5873 5872 5870 5869 5868
5906 5905 5904 5903 5902 5901 5900 5899 5899 5898 5898 5897 5897 5896 5895 5894 5893 5893 5892 5891 5890 5889 5888 5887 5886 5885 5884 5883 5883 5882 5881 5880 5879 5878 5877 5876 5874 5873 5872 5870 5869 5867 5866
5906 5905 5904 5904 5903 5902 5901 5900 5899 5899 5898 5897 5897 5896 5896 5895 5894 5893 5892 5891 5890 5889 5888 5887 5886 5885 5884 5882 5881 5881 5880 5879 5878 5877 5876 5875 5873 5871 5870 5868 5867 5865 5864
5907 5906 5905 5904 5903 5902 5901 5901 5900 5899 5899 5898 5897 5896 5896 5895 5894 5893 5892 5891 5889 5888 5887 5886 5885 5884 5883 5882 5881 5880 5879 5878 5877 5876 5875 5873 5872 5870 5868 5866 5865 5863 5862